MST,Max TemperatureF,Mean TemperatureF,Min TemperatureF,Max Dew PointF,MeanDew PointF,Min DewpointF,Max Humidity, Mean Humidity, Min Humidity, Max Sea Level PressureIn, Mean Sea Level PressureIn, Min Sea Level PressureIn, Max VisibilityMiles, Mean VisibilityMiles, Min VisibilityMiles, Max Wind SpeedMPH, Mean Wind SpeedMPH, Max Gust SpeedMPH,PrecipitationIn, CloudCover, Events, WindDirDegrees
2012-12-1,57,50,44,43,38,36,76,64,48,29.86,29.79,29.65,10,10,10,17,11,24,0.00,6,,136
2012-12-2,62,48,33,43,34,23,71,52,39,30.05,29.64,29.36,10,9,3,25,14,37,0.03,5,,216
2012-12-3,51,42,32,28,26,21,70,55,38,30.21,30.15,30.06,10,10,10,15,7,,0.00,1,,143
2012-12-4,51,46,41,43,35,25,82,66,46,30.12,30.07,30.01,10,10,10,25,17,33,0.13,7,,147
2012-12-5,57,47,37,45,39,28,87,70,48,30.12,30.05,29.97,10,10,7,17,9,21,0.17,4,,294
2012-12-6,37,35,33,30,28,27,75,73,70,30.13,30.11,30.10,10,10,10,7,4,,0.00,5,,295
2012-12-7,,,,,,,,,,,,,,,,,,,,,,
2012-12-8,,,,,,,,,,,,,,,,,,,,,,
2012-12-9,,,,,,,,,,,,,,,,,,,,,,
2012-12-10,,,,,,,,,,,,,,,,,,,,,,
2012-12-11,,,,,,,,,,,,,,,,,,,,,,
2012-12-12,,,,,,,,,,,,,,,,,,,,,,
2012-12-13,37,35,33,27,26,25,75,70,60,29.89,29.86,29.83,10,10,10,7,2,,0.00,8,,256
2012-12-14,41,37,33,28,27,27,81,71,61,29.89,29.79,29.73,10,10,10,9,3,,0.00,8,,313
2012-12-15,39,34,30,28,25,21,81,66,49,29.93,29.86,29.78,10,10,3,14,4,,0.00,8,,135
2012-12-16,39,34,30,30,27,25,81,75,65,29.91,29.80,29.55,10,10,4,24,10,32,0.07,7,,144
2012-12-17,48,39,30,34,25,14,70,53,37,29.93,29.68,29.49,10,10,10,28,15,44,0.00,3,,259
2012-12-18,35,27,19,18,14,10,74,59,44,30.04,29.97,29.92,10,10,8,10,4,,0.00,0,,5
2012-12-19,35,25,15,16,12,7,79,56,38,30.24,30.18,30.05,10,10,9,26,7,32,0.00,2,,130
2012-12-20,42,37,32,12,9,9,41,34,25,30.19,30.07,29.98,10,10,9,40,25,48,0.00,4,,157
2012-12-21,39,36,33,16,11,9,39,36,33,29.98,29.94,29.87,10,10,10,31,23,41,0.00,7,,163
2012-12-22,48,38,28,30,18,12,80,47,27,29.93,29.81,29.71,10,10,10,26,17,33,0.01,4,,155
2012-12-23,39,34,28,30,25,21,80,70,56,30.00,29.87,29.71,10,10,9,26,10,38,0.11,6,,146
2012-12-24,41,34,24,28,22,18,75,62,45,30.20,30.02,29.76,10,10,10,17,7,22,0.00,4,,294
2012-12-25,35,28,21,23,17,12,80,66,44,30.21,30.05,29.87,10,8,2,25,12,36,0.00,4,,142
2012-12-26,30,29,28,25,23,21,86,78,69,29.90,29.81,29.77,10,6,1,16,9,,0.01,8,,65
2012-12-27,33,27,21,25,21,16,86,76,65,30.17,30.04,29.91,10,7,0,7,4,,0.00,5,,324
2012-12-28,32,24,17,21,17,10,86,76,64,30.25,30.21,30.17,10,9,0,8,1,,0.00,2,,288
2012-12-29,26,20,14,16,12,7,80,68,55,30.23,30.17,30.08,10,9,2,13,4,,0.00,4,,138
2012-12-30,26,18,10,16,13,1,86,75,63,30.30,30.22,30.11,10,8,0,7,4,,0.00,5,,326
2012-12-31,24,16,8,14,9,0,80,72,54,30.41,30.32,30.27,10,8,0,10,3,,0.00,4,,316